Weather in Moshok

Russia / Vladimir Oblast     55°48′11″N   41°13′43″E
temp.,
°C
wind,
m/s
gust,
m/s
humid.,
%
clouds,
%
prec.,
mm/h
press.,
hPa
HPBL,
m
3 march, wed
wed300:00−2nw41196100 0.3 1007600
03:00−5nw4129199 0.3 1009544
06:00−7nw5139489 0.0 1010452
09:00−7nw5119295 0.1 1012493
12:00−4nw5108396 0.0 1012869
15:00−2wnw598883 0.1 1012921
18:00−3wsw4109396 0.1 1010396
21:00−2w5129292 0.2 1009658
4 march, thu
thu400:00−2wsw51192100 0.2 1005912
03:00−2wsw61494100 0.6 1003804
06:000wsw61396100 0.6 999916
09:00+1w71497100 1.6 9981061
12:000wnw61279100 1.6 9981152
15:000wnw5977100 1.6 999963
18:00−3nw2690100 0.0 999215
21:00−6nw2294100 0.0 100052
5 march, fri
fri500:00−8nw2394100 0.0 100168
03:00−9nnw2597100 0.0 1002114
06:00−11nnw249793 0.0 100478
09:00−10nnw239459 0.1 1006139
12:00−5nw238449 0.0 1007503
15:00−4w237974 0.0 1008851
18:00−8sw129292 0.1 100921
21:00−7sse249682 0.3 1011121
6 march, sat
sat600:00−7nw5993100 1.4 1011531
03:00−12wnw379697 1.5 1012171
06:00−14wnw259884 0.0 1013119
09:00−12nw369486 0.1 1014262
12:00−9nw468182 0.0 1015744
15:00−10nw467976 0.1 1015872
18:00−13wnw239139 0.0 101574
21:00−15wsw369328 0.0 101589
7 march, sun
sun700:00−14sw389481 0.0 1014174
03:00−14sw4119240 0.0 1011266
06:00−11ssw6158664 0.0 1007560
09:00−8sw8159182 0.5 1003973
12:00−5sw91691100 1.1 9981209
15:00−3sw81493100 2.2 9951192
18:00−3wsw61196100 1.8 992894
21:00−7wnw4892100 4.4 992313